TimeMST,TemperatureF,Dew PointF,Humidity,Sea Level PressureIn,VisibilityMPH,Wind Direction,Wind SpeedMPH,Gust SpeedMPH,PrecipitationIn,Events,Conditions,WindDirDegrees,DateUTC
12:53 AM,39.0,8.1,28,30.00,10.0,NW,17.3,-,N/A,,Clear,320,2013-01-19 07:53:00
1:53 AM,36.0,8.1,31,30.02,10.0,NW,13.8,-,N/A,,Clear,320,2013-01-19 08:53:00
2:53 AM,33.1,9.0,37,30.06,10.0,NNW,13.8,-,N/A,,Clear,330,2013-01-19 09:53:00
3:53 AM,30.9,8.1,38,30.10,10.0,NNW,10.4,-,N/A,,Clear,330,2013-01-19 10:53:00
4:53 AM,30.0,8.1,40,30.15,10.0,NW,4.6,-,N/A,,Clear,320,2013-01-19 11:53:00
5:53 AM,27.0,8.1,45,30.21,10.0,North,6.9,-,N/A,,Clear,360,2013-01-19 12:53:00
6:53 AM,23.0,7.0,50,30.22,10.0,North,8.1,-,N/A,,Clear,350,2013-01-19 13:53:00
7:53 AM,26.1,8.1,47,30.24,10.0,NW,4.6,-,N/A,,Clear,320,2013-01-19 14:53:00
8:53 AM,30.0,10.0,43,30.23,10.0,Calm,Calm,-,N/A,,Clear,0,2013-01-19 15:53:00
9:53 AM,41.0,9.0,27,30.22,10.0,NNW,8.1,-,N/A,,Clear,330,2013-01-19 16:53:00
10:53 AM,46.9,6.1,19,30.17,10.0,West,25.3,31.1,N/A,,Clear,280,2013-01-19 17:53:00
11:53 AM,50.0,5.0,16,30.14,10.0,NW,21.9,27.6,N/A,,Clear,310,2013-01-19 18:53:00
12:53 PM,51.1,5.0,15,30.12,10.0,WNW,20.7,29.9,N/A,,Clear,300,2013-01-19 19:53:00
1:53 PM,52.0,5.0,15,30.13,10.0,NW,18.4,23.0,N/A,,Clear,310,2013-01-19 20:53:00
2:53 PM,51.1,3.9,15,30.15,10.0,WNW,11.5,-,N/A,,Clear,300,2013-01-19 21:53:00
3:53 PM,48.0,5.0,17,30.17,10.0,WNW,12.7,-,N/A,,Clear,290,2013-01-19 22:53:00
4:53 PM,37.0,5.0,26,30.24,10.0,Calm,Calm,-,N/A,,Clear,0,2013-01-19 23:53:00
5:53 PM,34.0,8.1,34,30.26,10.0,West,9.2,-,N/A,,Clear,280,2013-01-20 00:53:00
6:53 PM,37.9,8.1,29,30.25,10.0,WSW,10.4,18.4,N/A,,Clear,250,2013-01-20 01:53:00
7:53 PM,30.9,10.0,42,30.26,10.0,East,5.8,-,N/A,,Clear,80,2013-01-20 02:53:00
8:53 PM,30.0,10.0,43,30.24,10.0,ESE,3.5,-,N/A,,Clear,120,2013-01-20 03:53:00
9:53 PM,26.1,10.9,53,30.20,10.0,Calm,Calm,-,N/A,,Clear,0,2013-01-20 04:53:00
10:53 PM,26.1,12.0,55,30.17,10.0,Calm,Calm,-,N/A,,Clear,0,2013-01-20 05:53:00
11:53 PM,25.0,10.9,55,30.14,10.0,Calm,Calm,-,N/A,,Clear,0,2013-01-20 06:53:00